Weather History for Abilene, TX

Change the Weather History Date:

Monday, April 9, 2012

  Actual Average Record
Temperature  
Mean Temperature 70 °F 63 °F  
Max Temperature 82 °F 76 °F 99 °F (2011)
Min Temperature 57 °F 50 °F 25 °F (1973)
Degree Days  
Heating Degree Days 0 5  
Month to date heating degree days 3 49  
Since 1 July heating degree days 2070 2480  
Cooling Degree Days 5 3  
Month to date cooling degree days 44 19  
Year to date cooling degree days 127 53  
Growing Degree Days 20 (Base 50)    
Moisture  
Dew Point 59 °F    
Average Humidity 71    
Maximum Humidity 100    
Minimum Humidity 42    
Precipitation  
Precipitation 0.00 in 0.05 in 1.66 in (1926)
Month to date precipitation 0.42 0.40  
Year to date precipitation 6.10 4.52  
Sea Level Pressure  
Sea Level Pressure 30.09 in    
Wind  
Wind Speed 8 mph (SSE)    
Max Wind Speed 17 mph    
Max Gust Speed 22 mph    
Visibility 9 miles    
Events      
T = Trace of Precipitation, MM = Missing Value Source: NWS Daily Summary

Daily Weather History Graph

Daily Weather History Graph

Search for Another Location

Airport:

Trip Planner

Search our weather history database for the weather conditions in past years. The results will help you decide how hot, cold, wet, or windy it might be!

Date:

Astronomy

Apr. 09, 2012 Rise Set
Actual Time 7:16 AM CDT 8:04 PM CDT
Civil Twilight 6:51 AM CDT 8:29 PM CDT
Nautical Twilight 6:21 AM CDT 8:59 PM CDT
Astronomical Twilight 5:51 AM CDT 9:29 PM CDT
Moon 11:48 PM CDT (4/9) 9:17 AM CDT (4/9)
Length of Visible Light 13h 38m
Length of Day
12h 48m
Waning Gibbous, 88% of the Moon is Illuminated
Apr 9
Waning Gibbous
Apr 13
Last Quarter
Apr 21
New
Apr 29
First Quarter
May 5
Full

Hourly Weather History & Observations

Time (CDT) Temp. Heat Index Dew Point Humidity Pressure Visibility Wind Dir Wind Speed Gust Speed Precip Events Conditions
12:52 AM 61.0 °F - 60.1 °F 97% 30.16 in 8.0 mi SSE 9.2 mph - N/A   Clear
1:52 AM 62.1 °F - 60.1 °F 93% 30.15 in 10.0 mi SSE 8.1 mph - N/A   Clear
2:52 AM 61.0 °F - 59.0 °F 93% 30.14 in 10.0 mi South 4.6 mph - N/A   Clear
3:52 AM 61.0 °F - 59.0 °F 93% 30.13 in 10.0 mi SSE 6.9 mph - N/A   Clear
4:52 AM 59.0 °F - 57.9 °F 96% 30.12 in 8.0 mi SSE 5.8 mph - N/A   Clear
5:52 AM 57.9 °F - 57.0 °F 97% 30.12 in 7.0 mi SE 3.5 mph - N/A   Clear
6:52 AM 57.0 °F - 57.0 °F 100% 30.13 in 7.0 mi SSE 5.8 mph - N/A   Clear
7:52 AM 57.0 °F - 57.0 °F 100% 30.14 in 4.0 mi SE 3.5 mph - N/A   Clear
8:52 AM 62.1 °F - 60.1 °F 93% 30.15 in 10.0 mi SSE 4.6 mph - N/A   Clear
9:52 AM 68.0 °F - 61.0 °F 78% 30.15 in 10.0 mi SSW 12.7 mph - N/A   Clear
10:52 AM 71.1 °F - 62.1 °F 73% 30.16 in 10.0 mi WSW 10.4 mph - N/A   Clear
11:52 AM 73.9 °F - 63.0 °F 68% 30.15 in 10.0 mi SW 6.9 mph - N/A   Partly Cloudy
12:52 PM 77.0 °F - 62.1 °F 60% 30.13 in 10.0 mi Variable 6.9 mph - N/A   Clear
1:52 PM 78.1 °F - 60.1 °F 54% 30.11 in 10.0 mi SSW 8.1 mph - N/A   Mostly Cloudy
2:52 PM 81.0 °F 80.8 °F 55.9 °F 42% 30.08 in 10.0 mi SSW 9.2 mph - N/A   Scattered Clouds
3:52 PM 81.0 °F 80.8 °F 55.9 °F 42% 30.05 in 10.0 mi South 12.7 mph 19.6 mph N/A   Partly Cloudy
4:52 PM 81.0 °F 81.0 °F 57.0 °F 44% 30.02 in 10.0 mi SSE 11.5 mph - N/A   Partly Cloudy
5:52 PM 80.1 °F 80.4 °F 57.0 °F 45% 30.00 in 10.0 mi SSE 11.5 mph - N/A   Clear
6:52 PM 78.1 °F - 59.0 °F 52% 29.99 in 10.0 mi SE 13.8 mph - N/A   Partly Cloudy
7:52 PM 75.0 °F - 59.0 °F 57% 29.98 in 10.0 mi SE 9.2 mph - N/A   Clear
8:52 PM 72.0 °F - 60.1 °F 66% 29.98 in 10.0 mi SE 10.4 mph - N/A   Clear
9:52 PM 70.0 °F - 59.0 °F 68% 30.02 in 10.0 mi SSE 6.9 mph - N/A   Clear
10:52 PM 68.0 °F - 59.0 °F 73% 30.03 in 10.0 mi SE 8.1 mph - N/A   Clear
11:52 PM 66.9 °F - 59.0 °F 76% 30.02 in 10.0 mi SSE 9.2 mph - N/A   Clear